This demonstration page uses our WeatherBlox Daily Observations layout. Learn more.

Left ArrowRight Arrow

39.08367, -84.50855

Hourly Observations for December 4, 2015

Temp ( °F °C ) Dew Point ( °F °C ) Humidity (%) Winds ( mph kmh ) Pressure ( in mb ) Visibility ( mi km ) Precip ( " mm )
12:05 am 00:05 Clear with Mist and Fog 28 -2.2 28 -2.2 100 100 Calm 30.53 1034 3 5 0.00 0.00
12:17 am 00:17 Clear with Mist and Fog 27 -2.8 26 -3.3 96 96 Calm 30.50 1033 2 3 0.00 0.00
12:46 am 00:46 Mostly Clear with Mist and Fog 27 -3 27 -3 100 100 Calm 30.53 1034 3 5 0.00 0.00
12:51 am 00:51 Partly Cloudy with Mist and Fog 25 -4 25 -4 100 100 Calm 30.53 1034 2 3 0.00 0.00
12:53 am 00:53 Partly Cloudy with Mist and Fog 26 -3.3 25 -3.9 96 96 Calm 30.50 1033 1 2 0.00 0.00
12:55 am 00:55 Mostly Cloudy with Mist and Fog 26 -3.3 25 -3.9 96 96 Calm 30.53 1034 1 1 0.00 0.00
1:05 am 01:05 Mostly Cloudy with Freezing Fog 29 -1.7 28 -2.2 96 96 Calm 30.53 1034 0 0 0.00 0.00
1:53 am 01:53 Mostly Cloudy with Freezing Fog 28 -2.2 28 -2.2 100 100 S 5 7 30.51 1033 5 8 0.00 0.00
2:53 am 02:53 Mostly Cloudy with Freezing Fog 30 -1.1 30 -1.1 100 100 Calm 30.52 1033 5 8 0.00 0.00
3:53 am 03:53 Mostly Cloudy with Freezing Fog 29 -1.7 29 -1.7 100 100 Calm 30.53 1034 0 0 0.00 0.00
4:53 am 04:53 Mostly Cloudy with Freezing Fog 29 -1.7 29 -1.7 100 100 Calm 30.54 1034 0 0 0.00 0.00
5:53 am 05:53 Mostly Cloudy with Freezing Fog 28 -2.2 28 -2.2 100 100 Calm 30.55 1034 0 0 0.00 0.00
6:53 am 06:53 Cloudy with Freezing Fog 28 -2.2 28 -2.2 100 100 Calm 30.56 1035 0 0 0.00 0.00
7:53 am 07:53 Cloudy with Freezing Fog 28 -2.2 28 -2.2 100 100 Calm 30.60 1036 0 0 0.00 0.00
8:53 am 08:53 Mostly Cloudy with Freezing Fog 28 -2.2 28 -2.2 100 100 Calm 30.63 1037 0 0 0.00 0.00
9:53 am 09:53 Mostly Cloudy with Freezing Fog 30 -1.1 29 -1.7 96 96 Calm 30.64 1038 0 0 0.00 0.00
10:09 am 10:09 Mostly Cloudy with Freezing Fog 31 -0.6 31 -0.6 100 100 S 3 6 30.65 1038 1 1 0.00 0.00
10:22 am 10:22 Cloudy with Mist and Fog 30 -1 30 -1 100 100 Calm 30.65 1038 1 2 0.00 0.00
10:53 am 10:53 Cloudy with Mist and Fog 31 -0.6 31 -0.6 100 100 E 5 7 30.65 1038 1 2 0.00 0.00
11:10 am 11:10 Cloudy with Mist and Fog 32 0 32 0 100 100 Calm 30.68 1039 3 4 0.00 0.00
11:25 am 11:25 Partly Cloudy with Mist and Fog 32 0 32 0 100 100 Calm 30.65 1038 4 6 0.00 0.00
11:53 am 11:53 Partly Cloudy with Mist and Fog 36 2.2 33 0.6 89 89 Calm 30.64 1038 4 6 0.00 0.00
12:53 pm 12:53 Hazy 39 3.9 33 0.6 79 79 NE 5 7 30.62 1037 5 8 0.00 0.00
1:53 pm 13:53 Hazy 41 5 34 1.1 76 76 W 7 11 30.62 1037 6 10 0.00 0.00
2:53 pm 14:53 Hazy 41 5 33 0.6 73 73 N 8 13 30.61 1037 6 10 0.00 0.00
3:53 pm 15:53 Hazy 39 3.9 32 0 76 76 NNW 7 11 30.63 1037 6 10 0.00 0.00
4:53 pm 16:53 Sunny with Mist and Fog 34 1.1 30 -1.1 85 85 N 7 11 30.64 1038 5 8 0.00 0.00
5:53 pm 17:53 Clear with Mist and Fog 32 0 29 -1.7 88 88 N 8 13 30.66 1038 6 10 0.00 0.00
6:39 pm 18:39 Mostly Cloudy with Mist and Fog 31 -0.6 29 -1.7 92 92 Calm 30.68 1039 5 8 0.00 0.00
6:53 pm 18:53 Cloudy with Mist and Fog 31 -0.6 29 -1.7 92 92 Calm 30.67 1039 5 8 0.00 0.00
7:12 pm 19:12 Cloudy with Mist and Fog 30 -1 30 -1 100 100 Calm 30.68 1039 5 8 0.00 0.00
7:53 pm 19:53 Cloudy with Mist and Fog 32 0 30 -1.1 92 92 Calm 30.67 1039 5 8 0.00 0.00
8:53 pm 20:53 Cloudy with Mist and Fog 32 0 30 -1.1 92 92 Calm 30.68 1039 5 8 0.00 0.00
9:53 pm 21:53 Cloudy with Mist and Fog 32 0 30 -1.1 92 92 NE 3 6 30.68 1039 4 6 0.00 0.00
10:53 pm 22:53 Cloudy with Mist and Fog 31 -0.6 30 -1.1 96 96 NE 5 7 30.69 1039 3 5 0.00 0.00
11:41 pm 23:41 Cloudy with Mist and Fog 30 -1.1 30 -1.1 100 100 ENE 5 7 30.71 1040 3 5 0.00 0.00
11:53 pm 23:53 Cloudy with Mist and Fog 30 -1.1 30 -1.1 100 100 Calm 30.69 1039 3 4 0.00 0.00

Powered by AerisWeather